Simultaneous Nadir Overpasses (SNOs) Predictions

Prediction of SNOs between LANDSAT-8 and METOP-B Satellite Orbit:

Table of predicted SNOs for the next 14.0 days since TLE Epoch: 1/19/2018
Index Date (LANDSAT-8) Time (LANDSAT-8) Lat,Lon (LANDSAT-8) SZA (LANDSAT-8 ) Date (METOP-B) Time (METOP-B) Lat,Lon (METOP-B) SZA (METOP-B ) Distance(km) Time Diff (sec)
1 01/21/2018 17:12:22 -81.12, 141.58 77.43 01/21/2018 17:11:33 -81.13, 141.64 77.44 1.13 49
2 01/21/2018 18:01:47 81.15, -50.31 102.63 01/21/2018 18:02:11 81.16, -50.18 102.66 2.24 24
3 01/24/2018 12:46:34 -81.14,-151.77 78.07 01/24/2018 12:45:54 -81.13,-151.86 78.10 1.72 40
4 01/24/2018 13:36:00 81.14, 15.95 101.93 01/24/2018 13:36:33 81.15, 15.93 101.95 0.62 33
5 01/27/2018 08:20:48 -81.12, -85.52 78.82 01/27/2018 08:20:16 -81.13, -85.38 78.81 2.57 32
6 01/27/2018 09:10:13 81.15, 82.54 101.24 01/27/2018 09:10:55 81.15, 82.40 101.24 2.41 42
7 01/30/2018 03:55:01 -81.13, -18.94 79.56 01/30/2018 03:54:38 -81.13, -18.91 79.56 0.49 23
8 01/30/2018 04:44:26 81.16, 149.09 100.50 01/30/2018 04:45:16 81.16, 149.24 100.53 2.50 50
9 02/01/2018 23:29:13 -81.14, 47.60 80.34 02/01/2018 23:28:59 -81.14, 47.53 80.35 1.21 14




NCC Satellite Simultaneous Nadir Overpasses (SNOs) Prediction Service
